Vertical_Velocity
-2 -3 -1 -0 0 -0 -0 -1 2 2 2 5 3 2 -6 1 5 3 1 -0 -0 -0
-0 -0 -1 0 1 -1 -1 -3 -2 -0 0 3 5 0 -0 0 1 -1 -3 1 4 1
0 1 1 -4 -4 -3 -2 -2 -0 2 7 5 3 -3 -2 -3 -4 -3 0 0 2 -1
-2 -9 -6 -5 -5 -5 -4 -4 0 7 6 0 -8 -1 1 -1 -1 -3 -2 -0 -2 -3
-6 -5 -5 -5 -4 -3 -4 -1 2 5 0 -1 3 4 1 -0 1 0 -1 -0 -0 0
-3 -2 -1 -2 -2 -1 -1 0 3 -0 -4 0 4 3 -1 -1 0 -1 -0 -0 -0 1
-0 -1 -3 -2 -0 -1 -0 0 -1 -2 -0 1 2 -0 -1 1 -0 1 1 1 3 2
0 -1 -1 -1 -1 -0 -0 -2 -6 -0 3 1 1 4 -2 1 -2 0 0 1 1 1
-1 -1 -0 -3 -1 -2 -1 0 -0 1 2 -0 -1 -4 3 -0 -0 0 1 -1 -2 2
1 -3 -2 -3 -3 1 -1 0 -0 -0 0 0 -1 2 0 -1 -1 -1 -1 0 -1 -1
-0 -3 -2 -3 -1 -1 -1 2 2 1 1 -0 -2 -0 -1 -3 -2 -0 -0 -0 -1 -2
-1 -2 -0 -2 -1 0 -1 -1 -3 -1 1 1 1 1 -2 -2 -1 -0 0 -1 -1 -1
0 -1 1 -1 -1 -1 -1 -1 -0 1 2 1 1 -1 -2 -2 -2 -2 -3 -2 -1 -1
3 1 2 0 -0 -1 -2 -2 -0 1 0 -0 -0 -2 -1 -2 -2 -2 -2 -2 -1 -0
Height
1567 1565 1562 1559 1554 1550 1544 1540 1536 1533 1531 1530 1529 1529 1526 1526 1523 1522 1520 1519 1517 1514
1563 1561 1557 1554 1550 1545 1540 1535 1531 1529 1527 1527 1527 1525 1524 1521 1521 1520 1518 1516 1513 1510
1559 1557 1554 1550 1546 1541 1536 1532 1529 1527 1527 1526 1524 1521 1520 1518 1518 1516 1515 1512 1509 1506
1556 1554 1550 1546 1542 1537 1532 1529 1527 1526 1524 1522 1520 1519 1517 1515 1514 1513 1511 1507 1504 1501
1552 1549 1546 1541 1537 1533 1529 1526 1524 1522 1520 1518 1515 1514 1514 1512 1511 1509 1505 1502 1499 1496
1548 1545 1541 1537 1533 1529 1525 1522 1520 1518 1516 1514 1513 1512 1510 1508 1506 1503 1500 1497 1493 1489
1543 1540 1537 1533 1529 1525 1521 1518 1516 1514 1512 1511 1510 1508 1506 1504 1502 1498 1495 1491 1487 1483
1539 1537 1533 1529 1525 1521 1517 1515 1513 1511 1510 1508 1506 1504 1502 1500 1497 1493 1489 1485 1480 1475
1535 1533 1529 1525 1521 1517 1515 1512 1510 1508 1506 1504 1502 1500 1498 1496 1492 1488 1483 1478 1473 1468
1531 1528 1524 1521 1517 1513 1511 1509 1506 1505 1502 1500 1498 1497 1494 1491 1487 1482 1477 1472 1466 1462
1526 1523 1520 1516 1512 1509 1506 1504 1502 1500 1499 1497 1495 1492 1490 1487 1482 1477 1472 1467 1462 1457
1520 1517 1514 1512 1509 1505 1502 1500 1499 1497 1495 1493 1491 1488 1486 1482 1477 1473 1468 1463 1459 1455
1514 1511 1508 1506 1503 1501 1498 1496 1494 1492 1491 1489 1487 1484 1481 1477 1473 1469 1465 1460 1456 1452
1508 1504 1502 1499 1498 1496 1494 1492 1490 1488 1487 1486 1483 1480 1477 1474 1470 1466 1462 1458 1454 1450